Location: Cluj-Napoca
(46.7712°N, 23.6236°E)
Time: 06:40:40
(UTC+03:00)

ISS - Pass Details

Date: 27 March 2020
Orbit: 417 x 423 km, 51.6° (Epoch: 29 March)

Event Time Altitude Azimuth Distance (km) Brightness Sun altitude
Rises 20:05:52 0° 283° (WNW) 2,360 2.0 -13.8°
Reaches altitude 10° 20:08:06 10° 293° (WNW) 1,497 0.5 -14.1°
Maximum altitude 20:11:12 34° 1° (N) 716 -2.4 -14.6°
Enters shadow 20:13:10 18° 57° (ENE) 1,103 -2.0 -14.9°
